Wind_Speed
12 13 13 12 12 11 11 11 11 12 13 13 14 14 14 15 16 17 19 20 21 22 22 22 22 22 22 22 21 21 21 20 20 20 19 18 18 18 18 18 18 18 18 19 19 19 19 19 19 20 19 19 19 19 18 18 18 17 17 16 16 15 15 15 14 14 14 14 15 15 15 16 16 17
15 15 16 15 15 14 13 13 13 13 13 13 13 13 13 14 16 17 18 19 20 20 20 20 20 20 20 20 20 20 20 19 19 18 18 17 18 19 19 19 19 20 20 20 20 20 20 20 20 20 20 20 20 20 19 19 18 18 18 17 17 16 16 15 15 15 15 16 16 17 17 18 18 19
16 16 17 17 17 16 15 14 14 14 14 14 13 13 13 14 15 16 16 17 17 18 18 18 19 19 19 19 19 19 19 19 18 18 18 18 18 19 20 20 20 20 20 20 20 20 20 20 20 20 20 20 21 21 20 20 19 19 18 18 17 17 16 16 16 16 16 17 17 18 18 19 20 21
16 16 16 16 16 16 15 15 15 15 15 14 14 13 14 15 15 15 15 16 16 17 17 17 18 18 18 18 19 19 19 19 19 19 19 19 20 21 21 22 22 22 21 21 21 21 21 20 20 20 21 21 21 21 21 21 20 19 19 19 18 18 18 18 18 17 17 18 19 19 20 21 21 22
16 16 16 15 15 15 15 15 15 15 15 15 14 14 15 15 15 15 15 16 17 17 17 18 18 19 19 20 20 21 22 22 22 21 22 22 22 23 23 24 24 24 24 23 23 23 22 22 21 22 22 22 22 22 22 22 21 20 20 20 20 20 20 20 19 19 20 21 22 23 24 24 24 25
16 16 15 15 15 15 15 15 16 16 15 15 15 15 16 16 16 18 19 19 20 20 20 20 20 20 21 21 21 22 23 23 23 23 23 24 24 25 25 25 25 26 26 26 26 25 25 24 24 23 23 23 23 23 23 23 23 23 22 22 21 21 21 21 22 23 24 26 27 28 28 29 29 30
16 16 15 15 14 15 15 16 17 17 16 17 17 17 18 19 20 21 21 21 21 21 21 21 21 20 20 20 20 21 22 23 23 24 24 24 24 25 26 26 26 27 27 27 28 28 28 27 27 26 26 25 25 25 25 25 26 26 26 25 25 24 24 25 25 27 28 30 30 31 32 32 33 33
16 16 15 14 15 15 16 17 17 18 18 18 19 19 20 21 21 21 20 19 19 18 18 18 18 17 17 17 18 20 21 22 23 23 24 24 25 25 25 26 27 27 28 28 29 29 30 30 30 30 29 29 28 28 28 28 28 29 29 29 30 30 30 30 30 31 32 33 33 33 33 34 35 36
17 16 16 15 16 16 17 18 18 18 19 19 19 19 19 19 18 17 16 16 16 16 16 16 16 16 17 17 18 19 20 21 22 22 22 23 24 24 25 26 27 28 28 28 29 30 31 32 32 32 32 32 32 31 31 31 31 31 32 32 33 33 34 34 34 35 35 36 36 35 35 36 36 37
17 17 17 16 17 17 18 18 18 18 18 19 18 18 17 17 17 16 16 16 17 17 18 18 18 18 18 18 18 19 20 21 22 22 22 23 24 24 24 25 26 26 27 28 29 30 31 32 33 34 34 34 34 34 34 34 34 34 35 35 36 36 37 37 37 37 37 37 38 38 39 39 40 41
18 18 17 17 17 18 18 18 18 18 18 18 18 18 18 18 18 18 19 20 20 20 20 20 20 20 20 20 20 19 20 21 22 23 23 24 24 24 24 24 24 25 27 29 30 30 31 33 33 34 35 35 36 36 37 38 38 38 39 39 40 40 40 40 40 40 40 40 41 41 42 44 44 45
18 18 18 19 19 19 19 19 19 19 20 20 20 21 21 22 22 22 22 23 23 22 22 22 22 21 21 21 21 20 20 21 22 23 23 23 24 24 25 25 26 28 30 32 32 33 34 34 35 35 36 37 38 38 39 40 41 41 42 43 43 43 43 43 43 43 43 43 44 45 46 47 48 49
19 20 20 21 21 21 21 21 22 22 23 24 24 25 25 25 25 25 24 24 24 24 23 23 22 22 22 22 22 22 22 22 22 23 23 23 24 25 27 28 30 32 34 35 36 36 37 37 38 38 39 40 41 42 42 43 43 44 45 45 46 45 45 45 45 44 45 46 47 48 49 51 52 52
21 22 23 23 24 24 24 24 25 25 25 26 26 26 26 25 25 24 23 23 24 24 24 23 23 23 23 24 25 25 25 24 24 24 24 24 25 27 30 32 34 36 38 39 39 40 40 40 40 40 41 43 44 45 45 45 45 46 47 47 47 46 46 45 45 46 47 48 49 51 52 53 54 55
23 24 25 26 26 27 27 27 26 26 26 26 26 25 25 24 24 24 24 24 24 25 25 26 26 26 26 26 26 27 28 28 27 27 27 27 28 30 33 36 38 39 40 42 42 43 43 42 41 41 42 44 45 45 46 46 46 47 47 47 47 46 46 47 48 49 50 51 51 52 53 54 55 56
26 27 27 28 29 29 29 29 28 28 27 27 26 27 27 27 27 26 26 25 26 26 26 27 28 28 28 28 28 29 29 30 30 30 31 31 32 33 36 38 39 40 42 44 45 46 45 43 41 41 43 44 44 44 44 45 45 46 46 46 47 48 49 50 50 50 51 51 52 52 53 54 55 56
28 29 30 30 30 31 31 31 30 30 30 30 30 30 30 30 29 27 26 26 27 27 28 28 29 29 29 29 30 30 30 30 31 33 35 35 35 37 38 39 39 40 42 45 46 46 44 41 40 42 43 43 43 43 43 44 44 45 47 48 49 50 51 51 50 50 50 50 51 53 54 55 56 57
30 30 30 30 30 31 31 32 32 33 33 33 33 33 33 33 31 29 27 27 27 27 28 30 30 30 31 32 32 32 32 33 34 36 38 38 39 41 41 39 40 42 43 45 45 43 41 40 41 44 43 42 42 42 42 43 44 46 47 48 49 49 49 49 49 49 49 50 52 54 55 56 57 57
31 32 32 32 32 33 34 34 34 35 35 36 36 37 37 37 35 32 30 29 29 29 30 31 31 33 35 35 35 35 35 36 37 38 40 41 43 45 42 39 40 41 42 42 43 42 42 42 44 45 43 42 41 41 42 43 45 46 47 48 48 48 48 47 47 48 49 51 53 54 55 54 54 54
34 35 35 36 37 37 37 37 37 37 38 39 39 40 40 41 40 38 36 35 34 34 34 34 34 35 36 36 37 38 39 39 39 40 43 45 46 46 43 39 40 41 41 42 44 45 45 46 48 46 43 42 43 43 45 46 47 48 48 48 48 47 47 47 48 49 50 52 52 52 52 52 52 53
38 38 39 40 41 41 41 41 41 41 41 42 42 43 43 44 44 44 43 42 41 41 41 39 37 37 38 39 40 41 41 42 41 42 44 46 47 47 44 42 43 44 43 45 48 48 47 49 50 47 44 44 45 46 47 48 49 49 49 48 48 47 47 48 49 50 52 52 51 51 52 52 53 54
41 42 42 43 44 43 43 44 44 45 45 46 46 46 46 47 48 48 47 48 48 49 49 46 42 41 41 42 41 43 44 45 44 44 45 45 46 48 48 47 48 47 46 48 51 51 49 50 49 47 46 46 46 47 48 49 50 50 49 49 48 48 48 49 50 52 52 52 52 52 53 54 55 56
46 46 47 47 47 47 47 47 48 48 49 49 50 50 51 51 52 51 51 52 52 52 53 51 47 46 46 46 46 48 49 48 46 46 45 45 47 49 51 52 52 51 49 50 52 51 50 49 49 48 48 48 47 48 49 50 51 51 50 49 49 49 49 50 51 53 53 53 53 54 55 56 56 57
50 51 51 51 52 52 52 52 53 53 53 54 54 55 55 55 56 56 56 56 55 55 56 56 54 52 52 52 51 51 51 49 48 48 48 48 49 50 53 56 57 55 52 50 49 50 50 50 50 49 49 49 49 49 50 52 52 51 49 49 49 49 50 51 53 54 53 54 54 55 56 56 57 57
54 54 55 55 55 56 56 56 57 57 57 57 57 58 59 59 59 59 59 59 59 58 58 58 58 57 57 56 54 52 52 52 51 52 52 52 53 53 55 59 60 57 53 51 50 52 53 51 49 49 49 48 49 49 51 53 52 50 48 48 48 49 51 52 53 53 53 54 54 54 55 56 57 58
54 55 56 57 57 58 59 60 60 60 61 61 60 61 61 61 61 60 60 60 61 61 60 60 60 59 59 59 57 56 57 56 56 55 55 55 56 54 54 58 59 56 53 52 53 54 53 51 50 49 48 48 49 50 50 50 48 48 49 50 50 51 52 52 52 52 52 52 52 53 54 56 58 59
52 53 55 56 57 58 60 60 61 62 62 63 62 62 61 61 60 60 60 60 61 62 62 62 62 61 61 61 60 60 60 59 58 57 57 57 57 55 54 57 60 60 56 54 53 53 53 52 50 48 46 47 48 48 46 45 45 48 51 52 52 52 52 51 51 50 49 49 50 52 55 57 58 57
55 55 56 57 58 59 60 61 62 62 63 63 63 63 63 63 62 61 61 61 61 62 63 64 64 64 64 63 63 63 61 59 58 58 58 59 59 58 58 60 63 64 61 55 52 52 51 48 45 44 45 46 44 42 41 43 46 49 51 52 51 51 50 49 48 48 48 49 51 54 56 56 55 52
57 57 58 58 59 60 61 62 63 63 64 64 65 65 65 65 65 65 65 65 65 64 65 65 66 65 65 65 64 62 60 58 58 58 59 60 60 60 60 60 62 65 61 54 51 50 47 43 42 43 42 41 40 40 41 44 46 48 48 49 49 48 47 47 46 47 49 51 54 55 54 52 50 48
59 59 59 60 60 61 62 64 65 65 66 66 67 67 67 67 67 67 67 67 67 67 67 66 66 66 66 65 63 60 57 57 58 59 60 60 58 58 58 58 60 61 56 51 48 46 42 41 41 40 38 38 39 40 41 42 44 46 46 46 45 45 45 46 47 48 51 54 54 53 50 48 46 46
62 62 62 62 63 64 64 65 67 68 68 69 70 70 70 70 69 69 69 69 69 68 68 67 66 65 64 63 60 56 55 55 54 53 53 52 53 55 55 54 57 56 51 47 46 43 41 41 39 37 37 38 38 38 39 41 43 43 43 42 42 43 46 47 48 50 52 52 51 49 46 46 45 44
66 66 66 66 67 67 67 68 68 69 70 71 72 73 73 73 72 71 71 71 71 70 69 67 66 65 64 62 58 54 53 53 51 49 47 46 49 52 51 51 54 54 50 47 44 41 40 39 37 36 36 35 35 37 38 39 39 40 40 41 43 45 47 48 50 51 50 48 47 46 45 45 45 41
69 69 69 70 70 71 71 71 71 72 73 74 74 75 74 74 73 72 72 71 71 70 68 66 65 63 62 61 59 56 55 56 55 53 51 49 50 50 49 50 52 51 47 43 41 39 38 36 35 34 32 32 33 35 35 36 37 38 40 43 45 46 48 49 49 48 45 44 44 45 45 44 42 38
70 71 71 71 72 72 73 73 73 73 74 74 74 74 74 73 72 71 70 70 69 68 67 65 64 62 60 59 59 59 60 61 61 60 57 54 53 52 50 49 49 46 40 39 38 36 35 33 31 31 30 30 31 32 33 36 38 39 41 44 46 47 48 47 45 43 42 42 43 45 44 42 39 36
65 65 66 67 68 69 69 69 70 70 70 70 71 70 70 69 68 67 67 66 65 64 63 62 61 59 58 58 59 60 61 61 61 61 60 58 56 54 51 49 46 40 37 38 36 33 31 29 29 29 29 29 29 30 33 36 38 39 41 43 45 46 45 43 41 41 41 42 43 43 41 38 35 34
57 57 57 58 59 60 60 61 62 63 63 64 64 64 64 63 63 62 61 60 59 59 58 57 56 56 55 54 53 53 54 55 55 55 55 53 51 50 49 46 41 37 36 34 32 29 28 27 28 28 28 29 29 30 32 35 37 39 42 43 44 43 41 40 40 40 40 41 42 40 37 34 33 33
51 51 51 51 51 52 52 52 52 52 53 54 55 55 55 55 55 54 54 54 54 52 51 50 53 55 54 49 45 44 45 46 46 46 46 46 46 46 45 40 36 34 32 29 27 26 26 26 26 27 28 29 30 30 31 34 37 41 43 42 40 38 38 39 39 39 39 40 38 35 31 30 30 31
48 48 48 48 48 48 48 47 45 44 43 42 42 42 42 43 43 44 45 47 47 47 47 48 52 54 55 53 50 48 46 45 44 42 43 44 44 42 39 35 32 29 26 24 24 24 24 24 25 27 28 30 30 30 32 34 38 41 41 39 37 37 38 38 38 38 39 38 34 29 27 27 28 29
50 51 51 51 50 50 49 47 46 43 39 36 34 33 33 33 34 34 36 38 39 40 41 44 46 45 45 46 47 45 43 44 43 41 41 41 38 36 34 31 27 24 22 22 22 22 22 23 26 28 29 29 29 30 33 36 39 39 37 36 36 37 37 37 37 38 38 35 30 26 25 25 27 29
53 53 54 54 54 53 52 50 48 45 41 38 35 33 31 31 31 31 31 31 32 32 33 37 40 40 38 37 37 37 37 38 39 40 40 38 34 32 30 27 23 22 21 21 21 21 22 25 27 28 28 28 29 31 34 37 38 36 35 35 35 36 35 36 37 37 34 30 27 26 25 25 26 27
54 55 56 57 57 57 56 54 52 49 46 43 39 36 34 33 31 30 29 28 29 30 32 34 38 38 36 34 33 34 34 36 39 41 41 37 32 29 27 24 22 22 21 20 20 22 24 26 27 27 27 28 30 32 34 36 35 33 33 34 35 34 34 35 36 34 29 26 25 25 25 24 24 25
49 51 52 53 53 53 53 53 52 50 48 46 43 40 37 35 32 30 29 27 27 30 32 34 36 35 34 34 33 33 35 36 39 39 36 32 29 27 25 23 23 21 20 20 22 24 25 25 25 26 27 28 30 32 34 34 33 31 32 33 33 32 33 34 33 30 26 24 24 24 24 23 23 23
41 41 41 41 40 41 42 43 45 46 46 46 44 41 38 35 32 31 28 26 27 30 33 35 34 33 33 34 35 35 35 34 34 33 31 28 26 25 24 22 21 20 20 22 23 24 24 24 24 26 28 29 31 32 33 31 30 30 31 32 31 31 32 32 30 26 23 23 23 23 23 22 21 20
24 21 19 19 20 22 24 26 30 34 38 40 40 38 35 33 32 31 29 27 27 28 31 33 34 34 34 35 35 34 32 30 28 28 26 25 24 23 21 20 20 20 22 23 23 24 24 24 25 26 27 29 31 32 31 29 28 29 30 30 30 30 31 30 27 23 22 21 21 21 21 20 19 19
14 11 10 10 11 11 12 13 15 19 25 30 32 32 31 31 30 28 25 24 26 28 29 31 32 33 33 33 31 29 26 24 24 23 23 23 22 20 19 19 20 21 22 22 23 24 24 24 25 26 27 29 32 32 30 28 27 27 28 28 28 29 30 28 25 22 20 19 20 20 20 19 18 17
Wind_Direction
253 254 255 256 256 257 259 260 262 265 269 272 275 278 282 283 283 284 285 286 287 288 290 290 290 290 290 290 290 289 288 288 287 287 288 288 289 288 289 290 291 292 293 295 296 297 298 299 300 300 299 298 296 295 294 293 292 292 291 290 290 289 289 290 290 292 293 296 298 299 300 300 301 300
257 255 256 257 259 261 264 266 269 273 277 279 282 286 287 285 284 284 285 285 286 287 288 288 288 289 289 288 288 287 286 286 287 287 289 289 290 290 290 291 292 293 294 295 296 297 298 299 299 299 298 296 295 294 293 292 291 291 291 290 289 288 288 288 291 293 295 297 299 300 301 302 303 304
255 254 255 257 259 263 266 271 275 279 284 287 291 295 293 288 286 286 286 286 286 287 286 286 286 286 286 286 285 285 286 287 288 290 291 292 292 292 293 295 295 296 296 297 297 298 298 298 298 296 295 293 292 291 290 289 289 289 289 289 289 287 287 288 290 291 293 295 296 297 299 300 301 303
251 250 252 254 256 260 266 272 277 280 285 289 295 298 295 293 294 293 290 287 284 284 284 284 285 286 287 287 287 287 288 289 291 292 293 293 293 294 295 295 295 295 295 295 295 295 295 294 293 291 290 289 288 288 287 287 286 286 286 285 285 285 284 285 285 286 287 289 290 292 293 295 297 299
248 247 248 250 251 255 260 266 272 277 282 287 294 296 294 294 293 288 284 281 281 282 284 286 288 288 289 289 290 290 291 292 293 294 294 294 295 295 294 294 294 293 293 292 291 291 290 290 289 288 287 285 284 284 283 283 281 280 279 278 278 278 278 276 276 277 280 284 287 289 290 292 294 296
247 246 247 248 250 254 257 260 265 269 274 280 284 286 287 286 283 280 279 280 282 284 285 286 286 286 287 288 289 290 291 292 293 294 294 294 293 293 293 292 292 291 291 291 290 290 289 288 287 286 285 283 281 280 279 278 277 276 275 275 275 275 274 272 272 275 280 285 289 291 292 292 293 294
249 248 249 252 254 257 259 259 260 263 266 270 273 276 279 278 277 276 277 278 279 280 281 282 283 283 284 285 287 287 288 288 290 291 292 291 291 290 290 290 290 290 290 290 290 289 288 287 285 284 283 281 279 277 276 275 274 273 272 272 274 274 275 275 276 278 282 286 288 289 289 290 290 291
253 253 255 257 258 259 259 259 259 260 262 264 266 269 271 272 272 273 274 274 275 275 276 277 279 281 282 282 283 285 285 286 287 288 289 289 289 289 289 289 289 289 289 289 289 289 288 287 286 285 282 280 278 276 275 274 273 273 273 273 275 276 277 278 279 281 283 285 286 286 287 287 288 289
255 256 256 257 257 258 259 260 260 261 262 263 264 265 266 267 268 269 271 273 274 276 277 278 280 282 282 283 284 285 287 287 288 288 289 289 290 291 291 292 291 291 291 291 291 291 291 290 289 287 285 283 280 279 277 277 277 277 277 278 279 279 280 280 281 282 283 284 285 286 287 289 290 290
253 253 253 254 255 257 258 259 259 259 260 260 260 261 261 262 264 267 270 273 276 278 280 280 281 281 280 281 283 285 286 288 290 292 293 294 294 294 294 293 293 293 293 294 294 294 293 292 290 289 287 286 284 283 282 281 281 281 281 281 281 281 281 281 282 282 282 282 283 285 287 290 291 292
250 250 250 251 252 254 255 255 255 255 255 256 256 257 258 261 263 267 269 272 274 275 277 277 277 277 277 277 279 281 283 286 289 292 294 295 295 295 294 293 292 292 292 293 293 293 292 291 290 289 288 287 286 285 285 284 284 283 282 282 282 282 282 282 283 283 283 283 284 285 287 289 291 293
250 249 249 249 249 249 249 249 251 252 252 253 254 256 258 261 264 265 266 267 268 270 270 271 272 273 274 275 276 279 281 284 286 288 290 292 293 293 291 289 288 289 289 290 291 291 290 290 289 289 288 287 286 286 285 285 286 285 284 283 283 283 283 284 284 285 285 286 287 287 289 290 292 293
249 248 247 247 247 248 249 251 254 256 258 259 260 262 263 264 264 265 265 265 265 264 264 264 265 267 269 270 271 272 276 280 282 284 286 289 290 289 287 286 286 287 288 289 290 291 290 290 291 290 290 288 287 286 285 286 286 286 285 284 283 283 283 283 284 285 287 288 289 290 291 292 292 293
251 249 247 248 250 252 254 257 259 262 263 264 265 264 263 262 262 263 265 265 264 261 258 257 260 263 265 266 266 269 274 278 282 284 285 287 287 286 285 284 284 285 287 288 289 289 289 290 291 291 291 290 289 288 287 287 287 286 286 285 284 283 283 283 284 286 288 289 290 291 292 292 293 293
255 253 251 252 254 257 259 261 262 264 265 264 263 262 260 259 259 260 263 265 264 262 258 258 262 266 267 268 269 271 275 277 280 282 284 286 286 286 286 284 283 284 285 287 288 289 289 290 290 291 292 292 291 290 289 288 288 288 287 286 285 284 284 284 286 288 289 291 292 292 292 292 292 292
258 258 257 258 260 261 262 262 263 263 262 261 260 259 258 258 260 263 266 269 269 267 265 265 267 269 270 272 274 274 275 276 278 281 284 286 287 288 288 286 284 284 284 285 287 288 289 289 289 291 294 294 292 291 290 289 288 287 287 287 286 285 285 287 288 290 292 293 293 293 293 293 292 292
261 262 263 264 265 266 266 267 267 266 265 262 261 260 260 261 263 268 272 273 271 269 268 269 270 272 276 278 279 278 278 279 280 283 285 286 288 290 290 288 286 285 284 285 286 287 287 286 288 292 294 293 292 290 289 288 287 287 287 286 286 285 286 288 290 292 293 293 293 293 293 293 292 292
260 262 263 264 266 267 268 270 270 270 270 268 268 268 268 268 269 273 278 278 275 273 273 273 274 277 280 281 279 279 281 283 284 284 284 286 289 291 291 289 287 286 285 285 286 287 286 285 290 295 294 292 291 290 289 289 288 288 287 287 287 287 288 289 290 291 292 292 292 292 292 291 291 291
262 262 263 263 264 265 267 269 270 270 270 270 271 272 273 273 274 275 277 278 278 278 278 279 279 280 281 280 278 279 284 287 287 287 287 288 290 290 290 288 287 287 286 285 286 287 286 288 294 297 293 291 291 290 291 291 291 290 289 289 289 289 289 290 290 290 291 291 292 292 291 292 292 292
262 263 264 265 266 266 267 268 268 269 269 270 271 272 273 274 275 275 274 275 276 277 277 279 281 283 282 280 278 281 284 286 288 288 288 288 288 288 287 287 289 290 287 285 286 287 287 290 295 295 291 290 292 292 293 294 294 293 292 291 291 291 290 290 290 291 292 293 293 293 293 294 294 294
262 263 265 266 267 268 269 269 269 269 269 270 270 271 272 273 273 273 273 274 274 274 274 276 279 282 282 280 280 281 282 283 285 286 287 287 287 288 288 288 291 291 287 282 283 284 286 289 293 291 288 289 292 294 295 295 295 294 293 292 292 292 291 291 292 293 295 295 295 296 296 295 295 295
262 263 264 265 265 266 267 268 269 269 270 271 271 271 272 271 272 273 273 273 274 274 274 274 277 280 280 279 281 281 279 280 282 284 285 285 283 285 287 288 290 289 286 282 280 280 283 286 287 286 286 289 293 294 295 295 295 295 294 293 293 293 293 294 294 295 296 297 297 297 297 296 295 295
261 262 263 264 265 265 266 267 268 268 269 270 271 271 271 271 271 272 272 272 272 272 273 273 274 275 275 277 279 278 277 278 281 283 284 282 280 283 286 287 287 287 285 281 279 278 281 283 283 282 283 287 292 294 294 295 296 296 294 294 294 294 294 295 295 297 297 297 298 297 296 295 295 296
262 262 263 265 266 267 268 269 269 270 270 271 272 273 273 273 272 272 271 270 269 270 271 272 273 273 273 274 275 275 274 276 279 281 282 282 282 283 284 284 284 285 283 280 277 277 280 282 281 280 281 286 292 295 295 295 296 295 294 294 294 294 294 295 296 297 297 297 297 296 295 295 296 296
261 262 263 264 266 267 268 269 270 271 271 272 273 274 275 275 274 274 273 271 270 270 270 271 272 273 274 274 274 273 274 276 277 278 280 281 280 280 279 280 280 280 279 277 276 278 281 280 278 278 281 287 293 296 296 295 295 294 294 293 293 292 293 294 295 296 296 296 296 295 295 296 297 297
260 260 261 262 263 264 265 266 267 268 269 270 271 272 273 273 272 272 272 271 270 270 270 270 271 272 273 273 273 274 275 276 277 277 277 277 276 275 275 276 276 277 276 274 276 279 278 275 275 278 284 290 294 295 295 294 293 294 293 293 292 292 293 294 295 295 295 294 294 295 296 297 297 298
260 260 260 261 262 263 263 263 264 264 265 266 267 268 269 269 269 269 268 268 268 269 269 270 270 270 271 272 272 273 274 276 276 276 275 274 273 271 270 271 274 278 277 274 275 277 274 272 275 280 287 293 294 294 293 293 292 293 293 292 292 292 293 294 294 294 294 294 295 297 298 298 298 298
261 261 261 262 262 263 263 264 264 264 264 264 265 265 266 266 266 267 266 266 266 267 268 270 271 271 272 272 272 273 274 275 276 276 275 274 272 270 269 270 273 278 277 273 272 273 271 273 279 285 291 294 293 293 293 293 293 292 292 292 292 293 294 294 294 294 295 296 297 298 298 297 297 298
265 265 264 264 265 265 265 265 265 265 265 265 265 265 265 265 265 265 266 266 266 266 267 268 270 271 272 272 273 274 275 276 277 276 275 275 275 274 274 274 275 275 274 271 269 269 271 276 284 289 292 291 290 291 293 292 292 291 290 291 292 293 294 294 294 295 296 297 298 298 296 296 296 298
266 267 267 267 267 267 267 268 268 268 268 267 267 267 266 266 266 266 266 267 267 267 268 268 269 271 271 272 272 273 275 276 276 276 276 276 276 275 276 277 277 275 271 267 266 268 273 281 287 288 288 288 289 291 291 290 290 289 290 291 292 292 293 294 295 296 296 297 297 296 295 296 298 299
267 267 267 267 267 267 268 268 268 268 268 268 268 268 267 267 267 267 267 267 267 267 267 268 268 269 269 270 271 271 273 275 276 275 275 276 276 276 274 275 277 274 266 259 261 269 278 283 285 284 284 286 288 289 289 289 289 289 290 291 291 292 293 294 295 295 296 297 297 296 296 298 299 298
268 268 268 268 268 268 268 267 267 267 266 266 266 266 266 266 266 266 266 266 266 266 266 266 267 267 268 269 268 267 268 270 270 269 269 271 273 274 274 275 274 267 257 253 261 273 281 282 281 281 283 285 287 288 289 288 288 289 291 292 292 293 294 295 295 296 297 297 296 297 298 300 299 295
270 270 269 269 269 268 268 267 266 266 265 265 265 264 265 265 265 264 264 265 265 265 266 266 266 266 266 267 266 262 259 260 263 264 265 267 269 272 276 277 268 256 250 256 269 279 281 279 278 280 282 285 287 289 289 288 289 291 292 293 294 295 296 297 297 298 298 298 298 299 300 299 296 292
270 269 269 268 268 267 267 266 265 265 264 264 265 265 265 265 265 265 265 265 265 265 266 266 266 266 266 266 265 262 259 258 260 262 263 265 267 272 278 273 257 249 257 271 279 280 276 275 277 280 283 286 288 289 289 290 291 293 294 296 298 299 300 300 300 300 300 300 301 302 301 298 293 290
269 268 267 267 266 266 265 265 265 265 265 265 266 266 267 267 267 267 266 266 266 265 265 265 265 266 266 266 265 263 261 260 260 261 262 265 268 273 274 264 253 257 273 280 277 275 273 274 279 282 285 288 289 289 289 291 293 296 298 300 302 303 303 302 302 302 302 303 304 304 301 295 290 288
270 269 268 266 265 265 265 264 264 264 265 265 266 266 267 267 267 267 267 267 266 265 264 264 264 263 263 263 263 262 260 260 261 262 263 266 269 269 265 258 258 269 277 274 269 271 273 278 283 286 287 288 289 290 291 293 298 302 304 305 305 304 304 303 303 303 304 305 306 304 298 292 288 289
273 272 270 269 268 267 266 265 265 265 264 264 265 265 266 267 267 267 267 267 266 264 263 262 261 260 258 257 260 264 264 263 264 265 264 266 266 262 257 259 267 272 269 264 266 271 276 281 284 285 286 288 290 292 296 301 306 308 309 309 307 305 304 304 304 304 305 307 306 302 296 291 289 289
275 274 273 271 270 269 268 267 266 265 265 264 264 264 265 266 266 267 267 266 266 264 260 258 258 258 258 258 262 268 267 263 263 265 262 259 257 257 258 264 267 263 258 260 267 272 276 280 282 283 285 288 291 297 304 309 311 311 310 309 307 306 306 306 306 306 308 308 306 302 299 297 296 296
274 273 272 271 270 269 269 268 267 266 266 265 265 265 266 267 268 268 269 268 266 263 261 259 258 259 258 258 261 265 264 261 260 260 256 252 253 258 262 261 257 252 254 261 266 270 274 277 279 281 284 288 296 304 310 313 313 311 309 307 307 307 307 307 308 309 310 309 307 305 303 302 301 300
274 272 270 269 267 266 266 265 265 265 264 263 264 264 265 267 269 270 271 269 264 260 260 259 257 255 255 257 260 263 263 260 257 255 254 254 257 258 256 251 248 250 256 260 263 268 272 275 277 280 285 292 301 308 311 312 311 309 307 306 307 308 308 308 310 310 310 309 308 307 305 304 302 302
276 273 271 269 267 265 264 263 262 261 260 260 260 260 262 264 266 270 272 267 260 258 257 251 246 246 250 256 261 265 264 259 253 252 254 254 253 248 244 244 247 251 254 258 264 268 271 273 277 282 289 298 305 308 309 309 308 306 305 306 307 308 309 310 310 310 308 308 307 306 305 305 306 308
280 277 274 271 268 265 263 261 259 257 256 256 255 255 257 260 263 267 270 262 251 249 249 244 242 245 251 256 261 266 265 257 250 248 247 245 241 240 241 243 247 250 255 261 265 267 270 273 279 287 295 302 305 306 307 307 306 305 305 307 308 309 310 311 310 308 307 307 306 305 308 311 313 315
288 281 275 272 269 267 264 262 259 255 253 251 250 250 252 255 258 263 263 255 245 242 244 246 249 253 256 257 259 261 259 252 245 242 240 237 237 239 241 243 248 253 259 263 264 266 270 276 284 292 299 303 304 304 304 304 304 304 305 307 309 310 312 312 310 307 305 305 306 308 312 316 319 322
302 292 286 281 278 276 271 266 262 256 250 246 244 244 245 249 255 258 255 248 243 244 245 248 251 254 255 255 254 252 248 243 240 238 235 235 237 239 241 246 253 257 260 261 263 267 273 282 291 297 301 302 301 302 303 302 302 303 306 308 310 311 313 314 310 305 304 306 307 310 315 320 324 327
327 325 322 311 299 292 284 274 267 258 247 239 236 235 238 244 250 251 245 241 243 246 247 248 248 246 245 244 242 239 236 233 232 232 233 235 238 240 244 250 255 257 259 261 265 271 278 286 293 297 298 299 300 301 301 301 301 304 307 309 310 312 314 314 309 305 304 306 308 312 318 322 328 333
Height
5786 5786 5786 5787 5787 5788 5788 5788 5788 5788 5788 5788 5788 5789 5789 5789 5788 5788 5788 5788 5788 5788 5788 5788 5788 5788 5788 5788 5788 5787 5787 5787 5787 5787 5787 5787 5787 5787 5787 5787 5787 5787 5786 5786 5786 5785 5785 5784 5784 5783 5783 5782 5782 5781 5781 5781 5780 5780 5779 5779 5778 5778 5778 5777 5777 5777 5776 5776 5775 5775 5774 5774 5773 5773
5784 5784 5784 5784 5785 5785 5785 5785 5786 5786 5786 5786 5786 5787 5787 5787 5786 5786 5786 5786 5786 5786 5786 5787 5786 5786 5786 5786 5786 5785 5785 5785 5785 5785 5785 5785 5785 5785 5785 5785 5785 5785 5785 5784 5784 5783 5783 5782 5782 5781 5781 5780 5780 5780 5779 5779 5778 5778 5777 5777 5777 5776 5776 5776 5775 5775 5774 5774 5773 5773 5772 5771 5771 5770
5783 5783 5783 5783 5783 5783 5783 5783 5783 5783 5783 5783 5784 5784 5784 5784 5784 5784 5784 5784 5784 5785 5785 5784 5784 5784 5784 5784 5784 5784 5783 5783 5783 5783 5783 5783 5783 5783 5783 5783 5783 5783 5782 5782 5782 5781 5781 5781 5780 5780 5779 5779 5778 5778 5777 5777 5777 5776 5776 5775 5775 5775 5774 5774 5773 5773 5772 5772 5771 5770 5770 5769 5768 5767
5782 5781 5781 5781 5782 5782 5782 5782 5782 5781 5781 5781 5781 5781 5782 5782 5782 5782 5782 5783 5783 5783 5783 5782 5782 5783 5782 5782 5782 5782 5781 5781 5781 5781 5781 5781 5781 5781 5781 5781 5781 5780 5780 5780 5780 5780 5780 5779 5778 5778 5777 5777 5776 5776 5775 5775 5775 5774 5774 5773 5773 5773 5772 5772 5772 5771 5770 5770 5769 5768 5767 5766 5766 5765
5781 5780 5780 5780 5780 5780 5780 5780 5780 5780 5780 5779 5779 5780 5780 5780 5781 5781 5781 5781 5781 5781 5781 5781 5781 5781 5781 5780 5780 5779 5779 5779 5779 5779 5779 5779 5779 5779 5779 5779 5778 5778 5778 5778 5778 5778 5777 5777 5776 5776 5775 5775 5774 5773 5773 5772 5772 5772 5771 5771 5771 5770 5770 5770 5769 5769 5768 5767 5766 5765 5764 5764 5763 5762
5779 5779 5779 5779 5779 5779 5779 5778 5778 5778 5778 5778 5778 5778 5778 5779 5779 5780 5780 5779 5779 5779 5779 5779 5779 5779 5779 5778 5778 5777 5777 5777 5777 5777 5777 5777 5777 5777 5776 5776 5776 5776 5776 5776 5776 5775 5775 5774 5773 5773 5772 5772 5771 5771 5770 5769 5769 5768 5768 5768 5767 5767 5767 5766 5766 5765 5765 5764 5762 5761 5761 5760 5759 5758
5777 5777 5777 5777 5777 5777 5777 5777 5777 5776 5776 5776 5776 5776 5776 5777 5777 5777 5777 5777 5777 5777 5777 5777 5777 5777 5777 5776 5776 5775 5775 5774 5774 5774 5774 5774 5774 5774 5774 5774 5774 5774 5774 5774 5773 5773 5772 5772 5771 5770 5770 5769 5768 5768 5767 5766 5766 5765 5764 5764 5764 5763 5763 5763 5762 5762 5761 5760 5759 5758 5757 5756 5755 5754
5775 5775 5775 5775 5775 5775 5775 5775 5775 5775 5775 5775 5775 5775 5775 5775 5775 5775 5775 5775 5775 5775 5775 5775 5775 5775 5774 5774 5774 5773 5773 5772 5772 5772 5772 5772 5772 5772 5772 5772 5772 5771 5771 5771 5771 5770 5770 5769 5769 5768 5767 5766 5765 5765 5764 5763 5762 5762 5761 5760 5760 5759 5759 5758 5758 5757 5756 5755 5754 5753 5752 5751 5750 5749
5773 5773 5773 5773 5773 5774 5774 5773 5773 5773 5773 5773 5773 5773 5773 5773 5773 5773 5773 5773 5773 5773 5773 5773 5773 5773 5772 5772 5771 5771 5770 5770 5770 5770 5770 5770 5769 5769 5769 5769 5769 5769 5769 5768 5768 5767 5767 5766 5765 5765 5764 5763 5762 5761 5760 5759 5759 5758 5757 5756 5755 5755 5754 5753 5753 5752 5751 5750 5749 5748 5747 5746 5745 5744
5771 5771 5771 5771 5772 5772 5772 5772 5772 5771 5771 5771 5771 5771 5771 5771 5771 5771 5771 5771 5770 5770 5770 5770 5770 5770 5770 5769 5769 5768 5768 5767 5767 5767 5767 5767 5767 5767 5766 5766 5766 5766 5766 5765 5765 5764 5763 5763 5762 5761 5760 5759 5758 5757 5756 5756 5755 5754 5753 5752 5751 5750 5749 5748 5747 5747 5746 5745 5744 5743 5742 5740 5739 5738
5769 5769 5769 5769 5770 5770 5770 5770 5770 5770 5770 5770 5769 5769 5769 5769 5769 5769 5768 5768 5768 5768 5767 5767 5767 5767 5767 5766 5766 5765 5765 5765 5764 5764 5763 5763 5763 5763 5763 5763 5763 5763 5762 5762 5761 5761 5760 5759 5758 5757 5756 5755 5754 5753 5752 5751 5750 5750 5748 5747 5746 5745 5744 5743 5742 5741 5740 5739 5738 5737 5736 5735 5733 5732
5766 5766 5767 5767 5767 5767 5768 5768 5768 5768 5768 5768 5768 5767 5767 5767 5767 5766 5766 5766 5765 5765 5765 5764 5764 5764 5764 5763 5763 5763 5762 5762 5762 5761 5761 5760 5760 5760 5760 5760 5760 5759 5759 5758 5757 5756 5755 5754 5754 5753 5752 5751 5750 5748 5747 5746 5745 5744 5743 5742 5741 5740 5739 5738 5737 5736 5735 5733 5732 5731 5730 5728 5727 5726
5763 5763 5764 5764 5764 5764 5765 5765 5765 5765 5765 5765 5765 5765 5765 5765 5764 5764 5764 5763 5763 5763 5762 5762 5761 5761 5761 5761 5760 5760 5760 5759 5759 5758 5758 5757 5757 5757 5757 5756 5756 5755 5754 5754 5753 5752 5751 5750 5749 5748 5747 5746 5745 5744 5743 5742 5741 5740 5738 5737 5736 5735 5734 5733 5732 5731 5729 5728 5726 5725 5723 5721 5720 5719
5761 5761 5761 5761 5761 5761 5761 5762 5762 5762 5762 5762 5762 5762 5762 5762 5762 5761 5761 5761 5760 5760 5760 5759 5759 5759 5759 5758 5758 5757 5757 5756 5755 5755 5754 5754 5754 5753 5753 5752 5752 5751 5750 5749 5748 5747 5746 5745 5744 5743 5742 5741 5739 5738 5737 5736 5735 5734 5733 5732 5731 5730 5729 5728 5726 5725 5724 5722 5721 5719 5717 5715 5713 5712
5758 5758 5758 5758 5758 5758 5758 5758 5758 5758 5759 5759 5759 5759 5759 5758 5758 5758 5758 5757 5757 5757 5757 5757 5756 5756 5756 5755 5755 5754 5754 5753 5752 5752 5751 5751 5750 5749 5749 5748 5747 5746 5745 5744 5743 5742 5741 5740 5739 5738 5737 5735 5734 5733 5732 5730 5729 5728 5727 5726 5725 5724 5723 5722 5721 5719 5718 5716 5714 5712 5710 5708 5706 5705
5756 5756 5756 5755 5755 5755 5755 5755 5755 5755 5755 5755 5755 5755 5754 5754 5754 5754 5753 5753 5753 5753 5753 5753 5752 5752 5752 5751 5751 5750 5750 5749 5748 5747 5747 5746 5746 5745 5744 5743 5742 5742 5740 5739 5738 5737 5736 5735 5735 5733 5732 5731 5729 5728 5726 5725 5723 5722 5721 5720 5719 5718 5717 5716 5714 5713 5711 5709 5707 5705 5703 5701 5699 5697
5752 5752 5752 5752 5752 5752 5752 5751 5751 5751 5751 5751 5751 5751 5750 5750 5749 5749 5749 5748 5748 5747 5747 5747 5747 5747 5747 5747 5746 5745 5745 5744 5744 5743 5742 5741 5740 5740 5739 5738 5737 5737 5735 5734 5733 5732 5731 5731 5730 5729 5727 5726 5724 5722 5721 5719 5718 5717 5716 5715 5713 5712 5711 5710 5708 5707 5705 5703 5700 5698 5696 5694 5692 5690
5748 5748 5748 5748 5747 5747 5747 5747 5747 5747 5747 5747 5746 5746 5746 5745 5745 5745 5744 5744 5743 5743 5742 5742 5742 5742 5742 5742 5741 5740 5740 5740 5739 5738 5737 5736 5735 5734 5733 5733 5732 5731 5730 5728 5727 5726 5726 5725 5724 5723 5721 5720 5718 5717 5715 5714 5712 5711 5710 5709 5707 5706 5705 5703 5702 5700 5698 5696 5694 5691 5689 5687 5685 5683
5743 5743 5743 5742 5742 5742 5742 5742 5742 5742 5741 5741 5741 5741 5741 5740 5740 5740 5740 5739 5738 5738 5738 5738 5738 5737 5736 5736 5735 5735 5734 5734 5733 5732 5731 5730 5729 5728 5727 5727 5726 5724 5723 5722 5720 5720 5719 5719 5717 5716 5715 5713 5712 5711 5709 5708 5707 5705 5704 5702 5701 5700 5699 5697 5696 5694 5692 5690 5687 5684 5682 5680 5678 5676
5737 5737 5737 5737 5737 5737 5737 5737 5736 5736 5736 5736 5736 5735 5735 5735 5735 5735 5735 5734 5734 5733 5733 5732 5732 5731 5730 5730 5729 5729 5728 5728 5727 5727 5725 5724 5723 5722 5722 5721 5720 5718 5716 5715 5714 5713 5713 5712 5711 5710 5709 5707 5706 5705 5703 5702 5700 5699 5698 5696 5695 5694 5693 5691 5690 5688 5685 5683 5680 5677 5675 5673 5671 5669
5732 5732 5731 5731 5731 5731 5731 5731 5731 5731 5730 5730 5730 5730 5730 5729 5729 5729 5728 5728 5728 5728 5727 5727 5726 5725 5724 5723 5723 5723 5722 5722 5722 5721 5719 5718 5717 5716 5715 5715 5714 5712 5711 5709 5708 5707 5707 5707 5706 5704 5703 5701 5700 5699 5697 5695 5694 5693 5692 5690 5689 5688 5686 5685 5683 5680 5678 5675 5673 5670 5668 5665 5663 5661
5727 5727 5726 5726 5726 5726 5725 5725 5724 5724 5724 5723 5723 5723 5723 5723 5723 5722 5721 5721 5721 5721 5720 5720 5720 5719 5718 5717 5717 5717 5716 5716 5716 5715 5713 5712 5711 5709 5709 5708 5707 5706 5705 5704 5702 5702 5702 5701 5700 5699 5697 5696 5694 5693 5691 5689 5688 5687 5686 5684 5682 5681 5679 5677 5675 5673 5670 5668 5665 5663 5660 5658 5656 5654
5721 5721 5720 5720 5720 5720 5719 5718 5718 5718 5717 5717 5716 5716 5716 5717 5716 5715 5715 5715 5715 5713 5713 5713 5714 5713 5712 5711 5711 5710 5709 5709 5710 5708 5707 5706 5705 5704 5702 5701 5700 5700 5700 5698 5697 5696 5696 5695 5694 5693 5691 5690 5689 5686 5684 5683 5682 5680 5679 5677 5676 5674 5672 5670 5667 5665 5663 5660 5658 5655 5653 5651 5649 5647
5714 5714 5714 5713 5712 5712 5711 5710 5710 5710 5710 5709 5709 5709 5709 5709 5709 5708 5708 5708 5707 5707 5706 5706 5706 5706 5705 5704 5704 5703 5703 5703 5703 5701 5700 5700 5699 5698 5696 5694 5693 5693 5693 5692 5690 5689 5689 5688 5687 5686 5685 5685 5683 5681 5678 5676 5675 5674 5672 5671 5669 5667 5665 5663 5660 5658 5655 5653 5650 5648 5646 5643 5641 5639
5708 5707 5707 5706 5705 5704 5704 5703 5702 5702 5702 5702 5702 5702 5702 5701 5700 5700 5699 5699 5699 5699 5699 5699 5698 5698 5697 5696 5696 5696 5695 5695 5695 5695 5694 5694 5693 5693 5690 5688 5686 5686 5685 5685 5684 5682 5682 5681 5680 5679 5679 5679 5678 5676 5673 5669 5667 5666 5665 5664 5662 5660 5659 5656 5654 5651 5649 5646 5643 5641 5639 5636 5634 5631
5700 5700 5700 5699 5698 5697 5696 5696 5695 5694 5694 5694 5695 5695 5694 5693 5692 5692 5691 5691 5690 5690 5690 5691 5690 5690 5689 5688 5688 5687 5686 5687 5687 5688 5688 5687 5686 5686 5684 5681 5679 5678 5678 5677 5676 5676 5675 5674 5673 5673 5673 5673 5671 5669 5667 5664 5661 5659 5657 5656 5655 5654 5652 5650 5648 5645 5642 5640 5637 5635 5632 5629 5627 5624
5692 5691 5691 5691 5690 5689 5688 5687 5687 5687 5686 5686 5686 5686 5685 5684 5684 5684 5683 5683 5682 5681 5681 5681 5681 5681 5680 5680 5680 5679 5678 5679 5680 5680 5680 5679 5678 5678 5676 5674 5672 5672 5671 5670 5669 5669 5668 5668 5668 5668 5667 5666 5664 5662 5661 5658 5656 5654 5651 5648 5647 5647 5645 5643 5641 5638 5636 5633 5631 5628 5626 5622 5619 5616
5683 5683 5682 5682 5681 5680 5680 5679 5678 5678 5678 5677 5677 5677 5676 5675 5675 5675 5675 5675 5674 5674 5673 5672 5672 5672 5672 5672 5671 5671 5671 5672 5673 5672 5671 5671 5670 5670 5669 5667 5666 5665 5665 5664 5663 5662 5661 5661 5662 5662 5661 5659 5657 5656 5654 5652 5650 5648 5645 5642 5640 5640 5638 5636 5634 5632 5629 5627 5624 5622 5619 5616 5613 5610
5673 5673 5673 5673 5672 5672 5671 5670 5669 5669 5669 5668 5668 5667 5667 5666 5666 5666 5665 5665 5665 5665 5665 5664 5663 5663 5663 5662 5662 5663 5664 5665 5664 5663 5662 5661 5661 5662 5662 5661 5659 5658 5658 5657 5656 5655 5655 5656 5655 5655 5654 5652 5651 5650 5649 5647 5644 5642 5640 5637 5634 5633 5631 5630 5628 5625 5622 5619 5617 5614 5611 5609 5607 5604
5663 5663 5663 5663 5662 5662 5661 5660 5659 5659 5659 5658 5657 5657 5656 5656 5657 5656 5656 5655 5655 5655 5655 5655 5655 5654 5654 5653 5654 5656 5656 5656 5656 5655 5654 5653 5654 5655 5655 5654 5653 5652 5651 5650 5649 5649 5650 5649 5648 5648 5647 5646 5645 5644 5643 5641 5638 5635 5633 5632 5629 5627 5625 5623 5621 5619 5615 5612 5609 5606 5604 5603 5601 5598
5653 5653 5653 5653 5653 5652 5651 5650 5649 5649 5648 5647 5646 5646 5645 5645 5646 5646 5645 5645 5645 5645 5646 5646 5645 5645 5645 5645 5647 5648 5649 5648 5648 5648 5646 5646 5646 5647 5647 5647 5646 5645 5644 5643 5643 5644 5644 5643 5642 5641 5641 5640 5639 5638 5637 5635 5632 5629 5628 5627 5624 5622 5619 5617 5615 5613 5609 5605 5601 5598 5597 5596 5594 5591
5642 5643 5642 5642 5642 5641 5640 5640 5639 5638 5637 5636 5635 5634 5634 5634 5634 5634 5634 5634 5634 5635 5636 5636 5636 5636 5636 5637 5639 5641 5640 5640 5640 5640 5640 5640 5639 5639 5639 5640 5639 5638 5637 5637 5638 5638 5638 5636 5636 5635 5635 5635 5634 5632 5630 5628 5626 5624 5623 5621 5618 5616 5614 5611 5609 5606 5603 5599 5595 5592 5591 5589 5587 5584
5632 5631 5630 5630 5629 5629 5628 5628 5627 5626 5625 5625 5624 5623 5623 5623 5623 5623 5623 5623 5624 5624 5625 5626 5627 5627 5628 5628 5630 5631 5631 5631 5631 5632 5633 5633 5633 5632 5633 5633 5633 5631 5631 5632 5633 5632 5631 5630 5630 5630 5631 5630 5629 5627 5624 5622 5621 5620 5618 5614 5612 5610 5608 5605 5603 5600 5597 5593 5589 5586 5585 5583 5580 5578
5620 5619 5618 5617 5616 5615 5615 5615 5614 5614 5613 5613 5613 5612 5612 5613 5613 5613 5613 5614 5614 5615 5616 5617 5617 5618 5619 5620 5620 5621 5622 5623 5624 5625 5626 5626 5626 5626 5627 5627 5626 5626 5626 5627 5626 5626 5625 5625 5626 5626 5625 5625 5624 5622 5619 5617 5616 5614 5612 5609 5606 5603 5601 5599 5597 5594 5591 5588 5584 5581 5579 5577 5575 5573
5608 5607 5606 5605 5603 5603 5603 5603 5602 5602 5602 5602 5602 5602 5602 5603 5603 5603 5603 5604 5605 5606 5607 5608 5608 5609 5610 5611 5612 5612 5614 5615 5616 5617 5618 5620 5620 5620 5621 5621 5621 5622 5622 5621 5620 5620 5620 5621 5621 5620 5620 5620 5620 5618 5616 5613 5611 5609 5607 5604 5601 5598 5595 5593 5591 5588 5586 5583 5579 5576 5573 5571 5569 5568
5596 5595 5594 5594 5593 5592 5592 5592 5592 5592 5593 5593 5593 5592 5592 5593 5593 5593 5593 5594 5595 5596 5598 5600 5601 5601 5602 5603 5604 5605 5606 5608 5609 5610 5612 5613 5614 5614 5614 5615 5616 5616 5616 5615 5614 5615 5615 5615 5615 5615 5614 5614 5614 5614 5612 5609 5606 5604 5601 5599 5596 5593 5590 5588 5586 5583 5581 5578 5575 5571 5568 5566 5565 5564
5585 5585 5584 5584 5583 5582 5583 5583 5583 5584 5584 5584 5584 5584 5584 5584 5584 5584 5584 5585 5586 5588 5591 5592 5593 5593 5595 5597 5598 5599 5600 5602 5603 5605 5606 5607 5607 5608 5608 5609 5610 5611 5610 5610 5610 5610 5610 5610 5610 5609 5609 5609 5609 5609 5607 5604 5601 5597 5595 5593 5591 5589 5586 5584 5581 5579 5576 5573 5570 5567 5564 5562 5561 5559
5576 5575 5575 5575 5574 5574 5574 5574 5575 5576 5576 5577 5577 5577 5577 5577 5577 5577 5577 5578 5579 5581 5583 5584 5584 5585 5588 5590 5592 5593 5594 5596 5598 5599 5601 5601 5601 5602 5603 5604 5605 5605 5605 5605 5605 5605 5605 5606 5605 5605 5605 5604 5604 5603 5601 5598 5595 5592 5590 5588 5586 5584 5582 5579 5576 5574 5571 5568 5566 5563 5561 5559 5556 5555
5567 5566 5566 5566 5565 5565 5566 5566 5567 5568 5570 5571 5571 5571 5571 5572 5572 5572 5572 5572 5573 5574 5575 5575 5577 5579 5581 5583 5585 5586 5588 5589 5591 5593 5594 5595 5595 5596 5597 5598 5599 5600 5601 5601 5601 5601 5601 5602 5602 5601 5601 5600 5599 5596 5594 5593 5591 5588 5586 5584 5582 5580 5578 5575 5572 5569 5566 5563 5561 5559 5558 5555 5553 5551
5558 5557 5556 5556 5556 5556 5557 5558 5559 5561 5563 5564 5565 5566 5566 5566 5567 5567 5567 5567 5567 5568 5568 5569 5570 5573 5575 5577 5579 5581 5582 5583 5585 5587 5589 5590 5591 5591 5592 5593 5595 5596 5596 5597 5597 5597 5597 5598 5598 5598 5597 5595 5593 5591 5589 5588 5586 5585 5583 5581 5579 5576 5574 5571 5568 5565 5562 5560 5558 5556 5554 5552 5550 5548
5548 5547 5546 5546 5546 5547 5548 5549 5551 5553 5555 5557 5559 5560 5561 5561 5562 5562 5563 5563 5563 5564 5565 5565 5567 5569 5572 5574 5575 5577 5578 5578 5580 5582 5584 5585 5586 5587 5588 5589 5590 5591 5592 5593 5593 5593 5594 5595 5594 5593 5592 5591 5589 5587 5585 5584 5582 5581 5579 5577 5575 5573 5570 5567 5564 5562 5559 5557 5555 5553 5551 5549 5547 5545
5538 5536 5535 5535 5535 5536 5537 5539 5542 5544 5547 5550 5552 5554 5555 5556 5557 5558 5558 5559 5560 5561 5562 5563 5565 5566 5568 5570 5571 5573 5573 5574 5575 5577 5579 5580 5581 5582 5584 5585 5586 5588 5588 5589 5590 5590 5591 5591 5590 5589 5587 5586 5584 5583 5581 5580 5578 5577 5576 5574 5571 5569 5567 5564 5561 5558 5556 5554 5552 5550 5548 5546 5544 5542
5529 5527 5526 5525 5526 5527 5528 5530 5532 5535 5538 5541 5544 5547 5549 5551 5552 5553 5554 5554 5556 5558 5559 5560 5561 5562 5564 5565 5567 5568 5569 5570 5570 5572 5574 5575 5577 5578 5580 5581 5583 5584 5585 5586 5587 5587 5587 5587 5586 5585 5583 5582 5580 5579 5578 5576 5575 5574 5572 5570 5568 5566 5563 5561 5558 5555 5554 5552 5550 5547 5545 5544 5541 5539
5522 5520 5520 5521 5522 5522 5523 5524 5525 5527 5530 5533 5537 5540 5543 5545 5546 5548 5549 5550 5552 5554 5556 5557 5558 5559 5560 5561 5563 5564 5565 5566 5567 5568 5570 5571 5573 5575 5576 5578 5579 5581 5582 5583 5583 5583 5583 5583 5581 5580 5579 5578 5577 5575 5574 5573 5572 5570 5569 5567 5565 5563 5560 5557 5554 5552 5551 5549 5547 5545 5543 5541 5539 5537
5522 5520 5520 5520 5521 5521 5521 5521 5521 5522 5525 5528 5531 5535 5538 5540 5541 5543 5545 5546 5548 5550 5552 5553 5554 5555 5556 5557 5559 5560 5561 5562 5563 5565 5566 5568 5570 5571 5573 5574 5576 5577 5579 5580 5580 5579 5579 5578 5577 5576 5575 5574 5573 5572 5570 5569 5568 5567 5566 5564 5562 5560 5557 5554 5551 5550 5548 5547 5545 5543 5541 5539 5537 5535